logo
Search for airport 
image banner adimage banner adimage banner ad
image banner ad

ED2301 - Bad Salzungen Klinikum

Located in , Germany

ICAO - , IATA -

Data provided by Airmate  

General information

Coordinates: N50°48'15" E10°13'0"
Elevation is 928 feet MSL.
 
View others Airports in Thuringia

Operational data

Special qualification required
Current time UTC:
Current local time:
Weather at : EDDE - Erfurt-Weimar ( 56 km )
METAR: EDDE 230950Z AUTO 24012KT 9999 SCT026 BKN032 13/07 Q1015 TEMPO 25015G25KT
TAF: TAF EDDE 230500Z 2306/2406 23009KT 9999 SCT025 BECMG 2306/2309 25014KT TEMPO 2308/2315 25015G25KT BECMG 2315/2318 24007KT
View NOTAMs / SUP AIP / TFR affecting this airport [VIEW]
Communications frequencies: [VIEW]

Runways:

Airport contact information

Address: Germany

Satellite view of ED2301